EW9532 Weather Reports


Display with metric or nautical units.
time (UTC)temp
F
wind
direction
speed
MPH
gust
MPH
rain 1hr
in
rain 24hr
in
rain mn
in
humidity
%
barometer
mb
20260903033329 87 43 3.0 13.0 0.00 0.00 0.00 76 1014.9
20260903033101 86 40 5.0 12.0 0.00 0.00 0.00 76 1015.0
20260903032829 87 115 6.0 13.0 0.00 0.00 0.00 76 1014.8
20260903032329 87 349 4.0 13.0 0.00 0.00 0.00 76 1014.7
20260903031829 87 129 4.0 11.0 0.00 0.00 0.00 76 1014.5
20260903031556 87 255 4.0 11.0 0.00 0.00 0.00 75 1014.9
20260903031329 87 269 2.0 9.0 0.00 0.00 0.00 76 1014.5
20260903031051 87 160 4.0 9.0 0.00 0.00 0.00 76 1014.6
20260903030328 87 208 4.0 7.0 0.00 0.00 0.00 76 1014.3
20260903025831 87 284 3.0 11.0 0.00 0.00 0.00 75 1014.2
20260903025811 87 96 5.0 13.0 0.00 0.00 0.00 75 1014.2
20260903024830 87 308 5.0 13.0 0.00 0.00 0.00 75 1014.1
20260903024604 87 35 3.0 11.0 0.00 0.00 0.00 74 1014.1
20260903024343 87 195 5.0 10.0 0.00 0.00 0.00 75 1014.1
20260903023841 88 339 5.0 10.0 0.00 0.00 0.00 75 1013.9
20260903023337 88 290 6.0 10.0 0.00 0.00 0.00 75 1013.7
20260903023057 87 263 5.0 12.0 0.00 0.00 0.00 74 1014.0
20260903022831 88 86 5.0 11.0 0.00 0.00 0.00 75 1013.7
20260903022331 88 309 6.0 11.0 0.00 0.00 0.00 74 1013.6
20260903021830 88 332 5.0 10.0 0.00 0.00 0.00 74 1013.6
20260903021555 88 306 4.0 11.0 0.00 0.00 0.00 73 1013.7
20260903021330 88 136 5.0 10.0 0.00 0.00 0.00 73 1013.4
20260903021105 89 75 4.0 11.0 0.00 0.00 0.00 73 1013.3
20260903020606 89 321 4.0 11.0 0.00 0.00 0.00 72 1013.2
20260903020117 89 257 4.0 13.0 0.00 0.00 0.00 71 1013.1
20260903020058 88 295 6.0 12.0 0.00 0.00 0.00 71 1013.3
20260903015552 89 359 6.0 13.0 0.00 0.00 0.00 70 1012.9
20260903015317 89 76 4.0 13.0 0.00 0.00 0.00 70 1012.9
20260903014613 89 337 4.0 13.0 0.00 0.00 0.00 68 1013.1
20260903014329 90 39 3.0 13.0 0.00 0.00 0.00 68 1012.8
20260903013828 90 152 6.0 10.0 0.00 0.00 0.00 67 1012.9
20260903013329 91 316 5.0 12.0 0.00 0.00 0.00 66 1012.8
20260903013107 90 248 5.0 13.0 0.00 0.00 0.00 65 1013.0
20260903012814 91 129 6.0 12.0 0.00 0.00 0.00 65 1012.7
20260903012551 91 221 6.0 11.0 0.00 0.00 0.00 64 1012.6
20260903011809 92 181 4.0 10.0 0.00 0.00 0.00 62 1012.5
20260903011622 91 37 5.0 11.0 0.00 0.00 0.00 61 1012.5
20260903011306 92 185 5.0 11.0 0.00 0.00 0.00 61 1012.4
20260903010806 92 65 4.0 11.0 0.00 0.00 0.00 60 1012.3
20260903010301 93 167 5.0 9.0 0.00 0.00 0.00 58 1012.2
20260903010108 92 47 4.0 11.0 0.00 0.00 0.00 57 1012.3
20260903005802 93 315 3.0 10.0 0.00 0.00 0.00 57 1012.1
20260903005259 93 232 5.0 10.0 0.00 0.00 0.00 57 1012.1
20260903004753 94 162 4.0 9.0 0.00 0.00 0.00 56 1012.0
20260903004608 93 184 5.0 10.0 0.00 0.00 0.00 56 1012.2
20260903004249 94 242 4.0 9.0 0.00 0.00 0.00 56 1012.0
20260903003744 95 21 3.0 9.0 0.00 0.00 0.00 54 1011.9
20260903003238 95 259 4.0 11.0 0.00 0.00 0.00 53 1011.9
20260903003125 95 285 3.0 10.0 0.00 0.00 0.00 51 1012.2
20260903002954 96 160 4.0 11.0 0.00 0.00 0.00 50 1011.7
20260903002229 96 23 4.0 9.0 0.00 0.00 0.00 48 1011.7
20260903001951 96 252 4.0 13.0 0.00 0.00 0.00 49 1011.8
20260903001603 96 65 4.0 13.0 0.00 0.00 0.00 49 1011.9
20260903001229 96 134 6.0 13.0 0.00 0.00 0.00 49 1011.7
20260903000729 96 42 6.0 10.0 0.00 0.00 0.00 49 1011.6
20260903000229 97 225 5.0 14.0 0.00 0.00 0.00 49 1011.8
20260903000054 97 75 3.0 13.0 0.00 0.00 0.00 48 1011.9
20260902235728 98 202 3.0 14.0 0.00 0.00 0.00 49 1011.6
20260902235229 98 158 4.0 11.0 0.00 0.00 0.00 48 1011.7
20260902234730 98 195 4.0 9.0 0.00 0.00 0.00 44 1011.6
20260902234554 98 302 4.0 9.0 0.00 0.00 0.00 43 1011.8
20260902234229 99 338 3.0 8.0 0.00 0.00 0.00 42 1011.4
20260902233957 99 110 3.0 10.0 0.00 0.00 0.00 40 1011.6
20260902233228 99 289 5.0 11.0 0.00 0.00 0.00 40 1011.6
20260902233104 99 1 4.0 11.0 0.00 0.00 0.00 39 1011.8
20260902232729 99 131 4.0 11.0 0.00 0.00 0.00 40 1011.4
20260902232229 100 148 4.0 9.0 0.00 0.00 0.00 40 1011.6
20260902231729 100 184 4.0 9.0 0.00 0.00 0.00 39 1011.4
20260902231603 100 144 4.0 11.0 0.00 0.00 0.00 39 1011.7
20260902231454 101 204 4.0 9.0 0.00 0.00 0.00 39 1011.4
20260902230729 101 90 5.0 8.0 0.00 0.00 0.00 39 1011.6
20260902230229 101 221 4.0 9.0 0.00 0.00 0.00 40 1011.6
20260902230059 101 79 4.0 11.0 0.00 0.00 0.00 39 1011.7
20260902225950 101 350 4.0 9.0 0.00 0.00 0.00 40 1011.6
20260902225231 102 340 4.0 12.0 0.00 0.00 0.00 40 1011.6
20260902224731 102 15 5.0 12.0 0.00 0.00 0.00 40 1011.6
20260902224625 101 277 3.0 10.0 0.00 0.00 0.00 40 1011.8
20260902224230 102 4 3.0 10.0 0.00 0.00 0.00 41 1011.7
20260902223731 102 240 4.0 9.0 0.00 0.00 0.00 41 1011.6
20260902223238 102 200 3.0 9.0 0.00 0.00 0.00 41 1011.6
20260902223100 101 115 3.0 10.0 0.00 0.00 0.00 42 1011.8
20260902222729 102 351 4.0 11.0 0.00 0.00 0.00 42 1011.4
20260902222230 102 20 5.0 11.0 0.00 0.00 0.00 42 1011.4
20260902221958 103 295 3.0 8.0 0.00 0.00 0.00 43 1011.4
20260902221557 102 319 2.0 11.0 0.00 0.00 0.00 42 1011.7
20260902221229 102 219 5.0 11.0 0.00 0.00 0.00 42 1011.6
20260902220728 102 138 4.0 11.0 0.00 0.00 0.00 43 1011.4
20260902220229 102 236 5.0 10.0 0.00 0.00 0.00 42 1011.4
20260902220101 102 186 3.0 10.0 0.00 0.00 0.00 41 1011.7
20260902220016 102 117 4.0 9.0 0.00 0.00 0.00 42 1011.4
20260902215229 102 12 5.0 10.0 0.00 0.00 0.00 43 1011.6
20260902214952 102 302 4.0 10.0 0.00 0.00 0.00 43 1011.6
20260902214556 102 248 4.0 10.0 0.00 0.00 0.00 42 1011.7
20260902214229 102 216 5.0 9.0 0.00 0.00 0.00 44 1011.6
20260902213729 103 209 5.0 9.0 0.00 0.00 0.00 43 1011.6
20260902213229 102 252 4.0 9.0 0.00 0.00 0.00 45 1011.6
20260902213106 102 321 4.0 10.0 0.00 0.00 0.00 44 1011.9
20260902212954 102 239 6.0 9.0 0.00 0.00 0.00 46 1011.8
20260902212448 101 73 4.0 9.0 0.00 0.00 0.00 44 1011.6
20260902211721 102 46 4.0 9.0 0.00 0.00 0.00 45 1011.8
20260902211558 101 120 3.0 8.0 0.00 0.00 0.00 44 1012.0
20260902211216 102 91 2.0 8.0 0.00 0.00 0.00 44 1011.8
20260902210951 102 311 3.0 6.0 0.00 0.00 0.00 44 1011.9
20260902210209 103 311 3.0 8.0 0.00 0.00 0.00 43 1011.9
20260902210108 102 205 2.0 8.0 0.00 0.00 0.00 42 1012.2
20260902205707 103 91 3.0 8.0 0.00 0.00 0.00 42 1012.0
20260902205429 103 221 3.0 7.0 0.00 0.00 0.00 41 1012.1
20260902204703 104 272 4.0 7.0 0.00 0.00 0.00 43 1012.1
20260902204554 103 126 3.0 9.0 0.00 0.00 0.00 42 1012.3
20260902204203 104 244 4.0 9.0 0.00 0.00 0.00 40 1012.2
20260902203701 105 111 5.0 9.0 0.00 0.00 0.00 40 1012.2
20260902203425 105 311 4.0 9.0 0.00 0.00 0.00 39 1012.2
20260902203052 104 290 3.0 7.0 0.00 0.00 0.00 39 1012.4
20260902202701 105 326 3.0 6.0 0.00 0.00 0.00 39 1012.4
20260902202200 104 222 3.0 7.0 0.00 0.00 0.00 39 1012.5
20260902201703 104 65 3.0 7.0 0.00 0.00 0.00 39 1012.5
20260902201602 103 65 2.0 7.0 0.00 0.00 0.00 39 1012.8
20260902201201 104 245 2.0 7.0 0.00 0.00 0.00 40 1012.6
20260902200922 104 230 3.0 7.0 0.00 0.00 0.00 39 1012.8
20260902200201 103 130 2.0 7.0 0.00 0.00 0.00 39 1012.8
20260902200056 103 94 2.0 7.0 0.00 0.00 0.00 40 1013.0
20260902195701 103 245 4.0 8.0 0.00 0.00 0.00 40 1013.0
20260902195200 103 13 2.0 8.0 0.00 0.00 0.00 40 1013.1
20260902195148 103 103 3.0 9.0 0.00 0.00 0.00 41 1013.2
20260902194556 102 101 3.0 8.0 0.00 0.00 0.00 40 1013.5
20260902194203 103 162 4.0 9.0 0.00 0.00 0.00 38 1013.4
20260902193703 103 233 3.0 9.0 0.00 0.00 0.00 41 1013.4
20260902193202 103 211 3.0 6.0 0.00 0.00 0.00 41 1013.4
20260902193100 102 190 2.0 8.0 0.00 0.00 0.00 40 1013.6
20260902192702 103 0 3.0 7.0 0.00 0.00 0.00 44 1013.4
20260902192202 102 250 4.0 8.0 0.00 0.00 0.00 43 1013.7
20260902191701 102 110 4.0 8.0 0.00 0.00 0.00 42 1013.6
20260902191606 101 105 4.0 8.0 0.00 0.00 0.00 42 1013.8
20260902191423 102 347 4.0 8.0 0.00 0.00 0.00 43 1013.8
20260902190701 101 325 2.0 7.0 0.00 0.00 0.00 45 1013.9
20260902190201 101 261 3.0 9.0 0.00 0.00 0.00 44 1014.0
20260902190056 101 304 3.0 9.0 0.00 0.00 0.00 44 1014.2
20260902185701 101 6 5.0 11.0 0.00 0.00 0.00 46 1014.0
20260902185200 101 295 3.0 13.0 0.00 0.00 0.00 44 1014.1
20260902184703 101 344 5.0 13.0 0.00 0.00 0.00 45 1014.2
20260902184603 101 210 3.0 9.0 0.00 0.00 0.00 44 1014.4
20260902184203 101 198 3.0 7.0 0.00 0.00 0.00 46 1014.2
20260902183733 101 167 3.0 11.0 0.00 0.00 0.00 46 1014.4
20260902183202 101 255 5.0 11.0 0.00 0.00 0.00 47 1014.5
20260902183103 100 185 2.0 8.0 0.00 0.00 0.00 47 1014.6
20260902182702 101 20 3.0 7.0 0.00 0.00 0.00 47 1014.5
20260902182208 101 200 3.0 7.0 0.00 0.00 0.00 48 1014.5
20260902181703 100 320 3.0 14.0 0.00 0.00 0.00 48 1014.5
20260902181557 99 17 2.0 13.0 0.00 0.00 0.00 46 1014.9
20260902181203 100 119 6.0 14.0 0.00 0.00 0.00 47 1014.8
20260902180702 100 316 3.0 9.0 0.00 0.00 0.00 49 1014.8
20260902180206 100 302 4.0 9.0 0.00 0.00 0.00 50 1015.0
20260902180126 99 240 2.0 11.0 0.00 0.00 0.00 49 1015.3
20260902175701 99 34 2.0 12.0 0.00 0.00 0.00 49 1015.1
20260902175201 99 40 5.0 12.0 0.00 0.00 0.00 50 1015.2
20260902174702 98 27 2.0 7.0 0.00 0.00 0.00 54 1015.3
20260902174648 98 174 3.0 7.0 0.00 0.00 0.00 51 1015.5
20260902174201 98 205 3.0 10.0 0.00 0.00 0.00 53 1015.5
20260902173925 98 2 4.0 10.0 0.00 0.00 0.00 51 1015.5
20260902173200 98 143 4.0 8.0 0.00 0.00 0.00 52 1015.5
20260902173057 97 291 2.0 8.0 0.00 0.00 0.00 52 1015.8
20260902172701 97 122 4.0 8.0 0.00 0.00 0.00 53 1015.6
20260902172200 97 105 4.0 13.0 0.00 0.00 0.00 54 1015.7
20260902171923 97 50 5.0 13.0 0.00 0.00 0.00 53 1015.8
20260902171609 97 56 2.0 10.0 0.00 0.00 0.00 52 1015.9
20260902171201 97 319 4.0 9.0 0.00 0.00 0.00 54 1015.8
20260902170701 97 297 4.0 8.0 0.00 0.00 0.00 54 1015.8
20260902170424 97 146 2.0 8.0 0.00 0.00 0.00 54 1016.0
20260902170054 96 128 3.0 11.0 0.00 0.00 0.00 55 1016.1
20260902165700 96 250 2.0 11.0 0.00 0.00 0.00 54 1015.9
20260902165201 96 229 6.0 11.0 0.00 0.00 0.00 56 1015.9
20260902164700 96 205 3.0 6.0 0.00 0.00 0.00 57 1016.1
20260902164559 96 148 2.0 6.0 0.00 0.00 0.00 56 1016.4
20260902164201 96 20 3.0 6.0 0.00 0.00 0.00 58 1016.2
20260902163701 96 307 2.0 7.0 0.00 0.00 0.00 58 1016.2
20260902163201 95 65 3.0 8.0 0.00 0.00 0.00 60 1016.4
20260902163104 94 311 4.0 8.0 0.00 0.00 0.00 58 1016.5
20260902162700 95 278 3.0 8.0 0.00 0.00 0.00 60 1016.3
20260902162201 94 236 2.0 10.0 0.00 0.00 0.00 61 1016.3
20260902161702 94 287 4.0 10.0 0.00 0.00 0.00 61 1016.4
20260902161605 93 204 2.0 9.0 0.00 0.00 0.00 61 1016.6
20260902161201 94 352 3.0 9.0 0.00 0.00 0.00 62 1016.4
20260902160925 93 186 4.0 9.0 0.00 0.00 0.00 62 1016.2
20260902160223 92 277 3.0 8.0 0.00 0.00 0.00 63 1016.5
20260902160201 93 250 2.0 9.0 0.00 0.00 0.00 63 1016.3
20260902155931 92 281 3.0 8.0 0.00 0.00 0.00 63 1016.4
20260902155202 92 87 3.0 8.0 0.00 0.00 0.00 65 1016.4
20260902154700 92 143 4.0 8.0 0.00 0.00 0.00 65 1016.5
20260902154629 91 340 2.0 9.0 0.00 0.00 0.00 65 1016.7
20260902154201 91 97 3.0 8.0 0.00 0.00 0.00 67 1016.5
20260902153653 91 236 4.0 8.0 0.00 0.00 0.00 67 1016.5
20260902153152 91 166 5.0 8.0 0.00 0.00 0.00 67 1016.4
20260902153141 90 119 4.0 9.0 0.00 0.00 0.00 67 1016.6
20260902153105 90 119 4.0 9.0 0.00 0.00 0.00 67 1016.6
20260902152651 90 122 3.0 8.0 0.00 0.00 0.00 69 1016.3
20260902152135 90 302 3.0 8.0 0.00 0.00 0.00 70 1016.3
20260902151629 90 262 3.0 8.0 0.00 0.00 0.00 71 1016.2
20260902151611 89 264 3.0 10.0 0.00 0.00 0.00 71 1016.5
20260902151129 89 234 4.0 8.0 0.00 0.00 0.00 72 1016.1
20260902150629 89 67 3.0 9.0 0.00 0.00 0.00 73 1016.1
20260902150129 89 288 4.0 9.0 0.00 0.00 0.00 74 1016.2
20260902145629 88 290 5.0 9.0 0.00 0.00 0.00 74 1016.3
20260902145347 88 135 5.0 9.0 0.00 0.00 0.00 75 1016.3
20260902144628 87 260 4.0 7.0 0.00 0.00 0.00 76 1016.2
20260902144555 87 161 2.0 9.0 0.00 0.00 0.00 75 1016.5
20260902144129 87 34 4.0 9.0 0.00 0.00 0.00 78 1016.2
20260902143857 87 305 5.0 9.0 0.00 0.00 0.00 77 1016.3
20260902143129 87 300 3.0 7.0 0.00 0.00 0.00 79 1016.2
20260902143055 86 338 2.0 8.0 0.00 0.00 0.00 78 1016.5
20260902142628 86 328 4.0 7.0 0.00 0.00 0.00 79 1016.3
20260902142127 86 162 3.0 6.0 0.00 0.00 0.00 80 1016.2
20260902141932 85 49 3.0 9.0 0.00 0.00 0.00 81 1016.5
20260902141601 85 161 3.0 9.0 0.00 0.00 0.00 82 1016.2
20260902141321 85 247 3.0 7.0 0.00 0.00 0.00 82 1016.2
20260902140601 84 200 3.0 8.0 0.00 0.00 0.00 83 1016.3
20260902140107 84 1 4.0 8.0 0.00 0.00 0.00 83 1016.2
20260902135822 84 74 2.0 6.0 0.00 0.00 0.00 84 1016.4
20260902135031 84 316 3.0 8.0 0.00 0.00 0.00 84 1016.2
20260902134611 83 236 3.0 8.0 0.00 0.00 0.00 84 1016.4
20260902134532 83 288 3.0 8.0 0.00 0.00 0.00 84 1016.2
20260902134032 83 269 2.0 5.0 0.00 0.00 0.00 84 1016.3
20260902133750 83 210 2.0 6.0 0.00 0.00 0.00 84 1016.2
20260902133104 83 207 1.0 6.0 0.00 0.00 0.00 84 1016.5
20260902133031 83 186 2.0 6.0 0.00 0.00 0.00 85 1016.1
20260902132531 83 180 1.0 6.0 0.00 0.00 0.00 84 1016.3
20260902132027 83 178 2.0 4.0 0.00 0.00 0.00 85 1016.2
20260902131635 83 311 1.0 5.0 0.00 0.00 0.00 84 1016.3
20260902131524 83 200 2.0 5.0 0.00 0.00 0.00 85 1016.0
20260902131021 83 320 2.0 5.0 0.00 0.00 0.00 84 1015.9
20260902130743 83 136 0.0 4.0 0.00 0.00 0.00 85 1015.9
20260902130453 83 359 1.0 4.0 0.00 0.00 0.00 86 1015.9
20260902130059 82 160 1.0 4.0 0.00 0.00 0.00 85 1016.0
20260902125510 83 269 2.0 6.0 0.00 0.00 0.00 86 1015.8
20260902125005 82 225 2.0 6.0 0.00 0.00 0.00 87 1015.8
20260902124620 82 208 0.0 5.0 0.00 0.00 0.00 87 1015.9
20260902124502 82 18 1.0 5.0 0.00 0.00 0.00 87 1015.7
20260902124003 82 219 2.0 5.0 0.00 0.00 0.00 88 1015.8
20260902123502 81 27 0.0 2.0 0.00 0.00 0.00 88 1015.7
20260902123137 81 98 0.0 5.0 0.00 0.00 0.00 87 1015.8
20260902123001 81 123 1.0 5.0 0.00 0.00 0.00 88 1015.6
20260902122502 81 338 2.0 5.0 0.00 0.00 0.00 87 1015.6
20260902122002 82 213 1.0 4.0 0.00 0.00 0.00 87 1015.7
20260902121642 81 0 1.0 4.0 0.00 0.00 0.00 87 1015.7
20260902121501 82 96 2.0 4.0 0.00 0.00 0.00 87 1015.6
20260902121004 82 269 1.0 4.0 0.00 0.00 0.00 87 1015.6
20260902120503 82 274 1.0 4.0 0.00 0.00 0.00 87 1015.5
20260902120004 82 1 1.0 5.0 0.00 0.00 0.00 87 1015.6
20260902115503 82 322 2.0 5.0 0.00 0.00 0.00 87 1015.6
20260902115225 82 66 2.0 5.0 0.00 0.00 0.00 87 1015.6
20260902114557 81 320 1.0 6.0 0.00 0.00 0.00 86 1015.7
20260902114503 82 226 1.0 5.0 0.00 0.00 0.00 86 1015.5
20260902114004 82 73 0.0 4.0 0.00 0.00 0.00 86 1015.4
20260902113504 82 187 2.0 4.0 0.00 0.00 0.00 86 1015.4
20260902113228 82 329 2.0 7.0 0.00 0.00 0.00 86 1015.3
20260902113202 81 223 1.0 6.0 0.00 0.00 0.00 86 1015.6
20260902112515 82 263 2.0 7.0 0.00 0.00 0.00 86 1015.3
20260902112016 82 207 3.0 4.0 0.00 0.00 0.00 86 1015.4
20260902111657 82 288 2.0 7.0 0.00 0.00 0.00 85 1015.6
20260902111503 82 119 2.0 4.0 0.00 0.00 0.00 86 1015.4
20260902111236 82 225 3.0 6.0 0.00 0.00 0.00 85 1015.4
20260902110503 82 345 3.0 7.0 0.00 0.00 0.00 85 1015.4
20260902110243 82 278 2.0 8.0 0.00 0.00 0.00 85 1015.5
20260902110125 82 278 2.0 8.0 0.00 0.00 0.00 85 1015.5
20260902110006 82 287 3.0 7.0 0.00 0.00 0.00 85 1015.3
20260902105503 82 247 2.0 4.0 0.00 0.00 0.00 85 1015.3
20260902105003 82 252 1.0 6.0 0.00 0.00 0.00 85 1015.4
20260902104616 82 275 1.0 7.0 0.00 0.00 0.00 85 1015.4
20260902104501 82 155 2.0 6.0 0.00 0.00 0.00 85 1015.3
20260902104226 82 184 2.0 6.0 0.00 0.00 0.00 85 1015.5
20260902103721 82 6 3.0 7.0 0.00 0.00 0.00 85 1015.5
20260902103052 82 70 2.0 7.0 0.00 0.00 0.00 85 1015.6
20260902103002 82 176 2.0 7.0 0.00 0.00 0.00 85 1015.5
20260902102943 82 191 3.0 7.0 0.00 0.00 0.00 85 1015.3
20260902102002 82 67 1.0 7.0 0.00 0.00 0.00 85 1015.3
20260902101601 82 260 2.0 6.0 0.00 0.00 0.00 84 1015.5
20260902101501 82 97 2.0 7.0 0.00 0.00 0.00 85 1015.4
20260902101017 82 302 2.0 6.0 0.00 0.00 0.00 85 1015.4
20260902100516 83 152 3.0 6.0 0.00 0.00 0.00 85 1015.5
20260902100326 82 72 2.0 7.0 0.00 0.00 0.00 84 1015.7
20260902100119 82 72 2.0 7.0 0.00 0.00 0.00 84 1015.7
20260902100004 83 180 2.0 6.0 0.00 0.00 0.00 85 1015.4
20260902095517 83 278 2.0 5.0 0.00 0.00 0.00 85 1015.4
20260902095001 83 327 2.0 7.0 0.00 0.00 0.00 85 1015.5
20260902094607 82 105 2.0 7.0 0.00 0.00 0.00 84 1015.7
20260902094502 83 278 3.0 7.0 0.00 0.00 0.00 84 1015.5
20260902094002 83 37 4.0 5.0 0.00 0.00 0.00 84 1015.5
20260902093502 83 345 1.0 4.0 0.00 0.00 0.00 84 1015.6
20260902093146 82 256 2.0 7.0 0.00 0.00 0.00 84 1015.8
20260902093002 83 6 2.0 5.0 0.00 0.00 0.00 84 1015.6
20260902092502 83 177 3.0 7.0 0.00 0.00 0.00 84 1015.6
20260902092002 83 281 3.0 9.0 0.00 0.00 0.00 84 1015.5
20260902091619 83 216 4.0 13.0 0.00 0.00 0.00 84 1015.7
20260902091501 83 350 5.0 9.0 0.00 0.00 0.00 84 1015.5
20260902091231 83 100 2.0 8.0 0.00 0.00 0.00 84 1015.4
20260902090503 83 240 4.0 8.0 0.00 0.00 0.00 84 1015.4
20260902090126 83 158 2.0 8.0 0.00 0.00 0.00 83 1015.7
20260902090004 83 136 3.0 8.0 0.00 0.00 0.00 84 1015.4
20260902085504 83 248 4.0 9.0 0.00 0.00 0.00 83 1015.3
20260902085003 83 105 5.0 9.0 0.00 0.00 0.00 83 1015.4
20260902084727 83 39 3.0 11.0 0.00 0.00 0.00 83 1015.4
20260902084607 83 70 3.0 12.0 0.00 0.00 0.00 83 1015.6
20260902084003 83 206 4.0 11.0 0.00 0.00 0.00 83 1015.5
20260902083503 83 57 4.0 11.0 0.00 0.00 0.00 83 1015.5
20260902083108 83 113 4.0 11.0 0.00 0.00 0.00 82 1015.7
20260902083002 83 164 4.0 11.0 0.00 0.00 0.00 83 1015.5
20260902082502 83 276 2.0 7.0 0.00 0.00 0.00 83 1015.6
20260902082000 83 248 3.0 10.0 0.00 0.00 0.00 82 1015.6
20260902081620 83 260 2.0 11.0 0.00 0.00 0.00 82 1015.8
20260902081454 83 221 2.0 11.0 0.00 0.00 0.00 82 1015.6
20260902081212 83 161 4.0 11.0 0.00 0.00 0.00 82 1015.6
20260902080443 83 157 1.0 10.0 0.00 0.00 0.00 82 1015.7
20260902080225 83 290 4.0 9.0 0.00 0.00 0.00 82 1015.8
20260902075943 83 306 5.0 10.0 0.00 0.00 0.00 82 1015.6
20260902075704 83 322 2.0 8.0 0.00 0.00 0.00 82 1015.7
20260902074938 84 22 3.0 8.0 0.00 0.00 0.00 82 1015.7
20260902074606 83 6 1.0 8.0 0.00 0.00 0.00 81 1016.0
20260902074434 84 273 2.0 7.0 0.00 0.00 0.00 82 1015.8
20260902073931 84 238 4.0 8.0 0.00 0.00 0.00 82 1015.8
20260902073430 84 130 2.0 8.0 0.00 0.00 0.00 82 1015.8
20260902073059 83 223 4.0 8.0 0.00 0.00 0.00 81 1016.1
20260902072930 84 186 4.0 8.0 0.00 0.00 0.00 82 1015.9
20260902072655 84 150 2.0 8.0 0.00 0.00 0.00 82 1015.7
20260902071930 84 217 4.0 8.0 0.00 0.00 0.00 81 1016.0
20260902071602 83 225 3.0 8.0 0.00 0.00 0.00 81 1016.2
20260902071430 84 278 3.0 8.0 0.00 0.00 0.00 81 1016.0
20260902070929 84 300 3.0 7.0 0.00 0.00 0.00 81 1016.1
20260902070433 84 349 3.0 7.0 0.00 0.00 0.00 81 1016.2
20260902070318 83 134 3.0 8.0 0.00 0.00 0.00 81 1016.5
20260902070220 83 134 3.0 8.0 0.00 0.00 0.00 81 1016.5
20260902065932 84 264 3.0 8.0 0.00 0.00 0.00 81 1016.1
20260902065657 84 256 4.0 8.0 0.00 0.00 0.00 81 1016.2
20260902064936 84 79 4.0 9.0 0.00 0.00 0.00 82 1016.3
20260902064558 84 50 4.0 9.0 0.00 0.00 0.00 82 1016.5
20260902064436 84 69 4.0 9.0 0.00 0.00 0.00 82 1016.3
20260902064148 84 116 3.0 7.0 0.00 0.00 0.00 82 1016.4
20260902063431 84 44 3.0 7.0 0.00 0.00 0.00 82 1016.4
20260902063250 84 283 2.0 9.0 0.00 0.00 0.00 82 1016.7
20260902063156 84 12 3.0 9.0 0.00 0.00 0.00 82 1016.5
20260902062430 84 224 3.0 9.0 0.00 0.00 0.00 82 1016.5
20260902061930 84 217 3.0 8.0 0.00 0.00 0.00 82 1016.6
20260902061557 84 161 3.0 8.0 0.00 0.00 0.00 81 1016.8
20260902061430 84 251 4.0 8.0 0.00 0.00 0.00 82 1016.6
20260902060930 84 114 3.0 9.0 0.00 0.00 0.00 82 1016.6
20260902060430 84 138 5.0 9.0 0.00 0.00 0.00 81 1016.6
20260902060135 84 11 3.0 9.0 0.00 0.00 0.00 81 1016.7
20260902055931 85 218 3.0 8.0 0.00 0.00 0.00 81 1016.5
20260902055430 85 180 3.0 10.0 0.00 0.00 0.00 81 1016.4
20260902055416 85 179 4.0 10.0 0.00 0.00 0.00 81 1016.3
20260902054554 84 124 4.0 10.0 0.00 0.00 0.00 80 1016.6
20260902054430 85 346 5.0 11.0 0.00 0.00 0.00 81 1016.5
20260902054150 85 71 3.0 11.0 0.00 0.00 0.00 81 1016.6
20260902053430 85 215 2.0 7.0 0.00 0.00 0.00 80 1016.4
20260902053149 85 169 3.0 7.0 0.00 0.00 0.00 80 1016.6
20260902053119 84 256 3.0 8.0 0.00 0.00 0.00 80 1016.8
20260902052430 85 253 2.0 7.0 0.00 0.00 0.00 80 1016.5
20260902051927 85 298 2.0 7.0 0.00 0.00 0.00 80 1016.6
20260902051607 84 94 4.0 9.0 0.00 0.00 0.00 80 1016.7
20260902051423 85 271 3.0 6.0 0.00 0.00 0.00 80 1016.4
20260902050916 85 200 2.0 8.0 0.00 0.00 0.00 80 1016.5
20260902050411 85 203 3.0 8.0 0.00 0.00 0.00 80 1016.4
20260902050055 85 134 2.0 7.0 0.00 0.00 0.00 79 1016.7
20260902045909 85 321 2.0 7.0 0.00 0.00 0.00 80 1016.6
20260902045407 85 222 2.0 7.0 0.00 0.00 0.00 80 1016.6
20260902044908 85 102 2.0 7.0 0.00 0.00 0.00 79 1016.6
20260902044602 85 299 2.0 8.0 0.00 0.00 0.00 78 1016.8
20260902044408 85 231 3.0 8.0 0.00 0.00 0.00 79 1016.6
20260902044355 85 250 3.0 8.0 0.00 0.00 0.00 78 1016.7
20260902043409 85 290 4.0 6.0 0.00 0.00 0.00 78 1016.8
20260902043111 85 167 2.0 7.0 0.00 0.00 0.00 77 1016.9
20260902042908 85 0 2.0 6.0 0.00 0.00 0.00 78 1016.7
20260902042407 85 127 4.0 6.0 0.00 0.00 0.00 78 1016.7
20260902041909 85 166 2.0 8.0 0.00 0.00 0.00 78 1016.7
20260902041630 85 240 2.0 7.0 0.00 0.00 0.00 77 1016.8
20260902041557 85 240 2.0 7.0 0.00 0.00 0.00 77 1016.8
20260902041408 85 59 2.0 8.0 0.00 0.00 0.00 78 1016.7
20260902040906 86 136 3.0 8.0 0.00 0.00 0.00 78 1016.5
20260902040625 86 210 3.0 8.0 0.00 0.00 0.00 78 1016.4
20260902040133 86 330 3.0 8.0 0.00 0.00 0.00 78 1016.2
20260902040056 85 233 3.0 8.0 0.00 0.00 0.00 77 1016.6
20260902035406 86 285 4.0 9.0 0.00 0.00 0.00 78 1016.3
20260902035132 86 228 4.0 10.0 0.00 0.00 0.00 77 1016.3
20260902034553 86 153 4.0 10.0 0.00 0.00 0.00 77 1016.4
20260902034406 86 23 4.0 10.0 0.00 0.00 0.00 77 1016.1
20260902033906 86 252 3.0 8.0 0.00 0.00 0.00 77 1016.0